Location: Rounton
(54.4000°N, 1.3500°W)
Time: 14:28:03
(UTC+00:00)

Transit 2A Rocket - Pass Details

Date: 02 December 2021
Orbit: 584 x 918 km, 66.7° (Epoch: 17 January)

Event Time Altitude Azimuth Distance (km) Brightness Sun altitude
Rises 14:40:44 0° 313° (NW) 3,556 8.4 5.7°
Reaches altitude 10° 14:43:25 10° 320° (NW) 2,621 7.7 5.5°
Maximum altitude 14:49:16 43° 32° (NNE) 1,262 5.8 4.9°
Drops below altitude 10° 14:54:58 10° 103° (ESE) 2,554 7.5 4.4°
Sets 14:57:32 0° 110° (ESE) 3,455 8.2 4.1°
